Find Gao Fen 11-03

NORAD ID: 49492 Int'l Des: 2021-107 Owner: YWZB Country: CN operational
LEOCIRCULARRETROGRADESSO

当前视图

正在加载3D地球...

关于 Gao Fen 11-03

正在加载描述...

即将过境

Passes for default location (London). Set your location on the main map for personalized predictions.

高度历史

Loading altitude history...

两行轨道根数

1 49492U 21107A 26151.50342995 .00007120 00000-0 29879-3 0 9999
2 49492 97.2090 196.2891 0009826 115.5503 244.6752 15.23722862252094
Epoch: May 31, 2026 • Age: 8 hours

当前状态

高度 498.7 km
速度 7.62 km/s
星下点 62.88°N, 165.57°W
发射日期 Nov 20, 2021
运行时间 4.5 years
类型 other

技术详情

分类 Payload
质量 3000.00 kg
干质量 3000.00 kg
总质量 3000.00 kg
长度 2.00 m
直径 2.00 m
跨度 8.00 m
形状 Box + 2 Pan
制造商 CAST/YWZB
平台类型 JB-16
阶段状态 In Orbit
所有者/国家 YWZB/CN

Most Searched